ICE113 BIKF-BGGH

Flight info

Callsign ICE113
Flight time 2h 48m
Altitude 40000
Route SORIR3A SORIR DCT SOPEN DCT SABAG DCT NAPIB DCT INBAN DCT GETDA
Aircraft B38M/M-SDE1FGHILORVWXY/HB1

Departure

Time 2026-04-21 13:42
Airport Keflavik International Airport (BIKF)

Arrival

Time 2026-04-21 16:30
Airport Nuuk International Airport (BGGH)
Time Latitude Longitude Altitude Speed Heading
2026-04-21 13:18 63.99407 -22.61609 143 ft 0 kts 180°
2026-04-21 13:34 63.99428 -22.61609 143 ft 4 kts 180°
2026-04-21 13:34 63.99450 -22.61609 143 ft 4 kts 169°
2026-04-21 13:34 63.99468 -22.61636 143 ft 4 kts 109°
2026-04-21 13:35 63.99470 -22.61661 143 ft 4 kts 90°
2026-04-21 13:35 63.99470 -22.61600 143 ft 4 kts 90°
2026-04-21 13:35 63.99470 -22.61548 143 ft 1 kts 90°
2026-04-21 13:35 63.99470 -22.61547 143 ft 0 kts 90°
2026-04-21 13:38 63.99469 -22.61499 143 ft 8 kts 99°
2026-04-21 13:38 63.99412 -22.61430 143 ft 12 kts 179°
2026-04-21 13:39 63.99331 -22.61430 146 ft 11 kts 180°
2026-04-21 13:39 63.99253 -22.61430 150 ft 11 kts 179°
2026-04-21 13:39 63.99182 -22.61393 153 ft 10 kts 129°
2026-04-21 13:39 63.99173 -22.61259 156 ft 8 kts 89°
2026-04-21 13:40 63.99173 -22.61125 159 ft 10 kts 90°
2026-04-21 13:40 63.99173 -22.60900 164 ft 16 kts 90°
2026-04-21 13:40 63.99174 -22.60678 171 ft 11 kts 89°
2026-04-21 13:40 63.99148 -22.60549 175 ft 9 kts 156°
2026-04-21 13:41 63.99111 -22.60542 176 ft 0 kts 179°
2026-04-21 13:41 63.99110 -22.60542 176 ft 1 kts 179°
2026-04-21 13:41 63.99039 -22.60542 175 ft 34 kts 180°
2026-04-21 13:41 63.98522 -22.60540 175 ft 113 kts 180°
2026-04-21 13:42 63.97510 -22.60547 221 ft 171 kts 179°
2026-04-21 13:42 63.96313 -22.60577 1077 ft 171 kts 182°
2026-04-21 13:42 63.95123 -22.60582 1914 ft 174 kts 181°
2026-04-21 13:42 63.93845 -22.60563 2464 ft 194 kts 181°
2026-04-21 13:43 63.92421 -22.60548 2955 ft 216 kts 181°
2026-04-21 13:43 63.90885 -22.61160 3347 ft 236 kts 208°
2026-04-21 13:43 63.89762 -22.63777 4224 ft 232 kts 245°
2026-04-21 13:43 63.89391 -22.67342 5122 ft 240 kts 268°
2026-04-21 13:44 63.89376 -22.71265 5781 ft 257 kts 270°
2026-04-21 13:44 63.89369 -22.75387 6685 ft 262 kts 270°
2026-04-21 13:44 63.89611 -22.79491 7585 ft 266 kts 291°
2026-04-21 13:44 63.90513 -22.83194 8462 ft 271 kts 301°
2026-04-21 13:45 63.91503 -22.86874 9316 ft 276 kts 301°
2026-04-21 13:45 63.92524 -22.90622 10202 ft 281 kts 301°
2026-04-21 13:45 63.93564 -22.94411 11021 ft 287 kts 301°
2026-04-21 13:45 63.94660 -22.98381 11538 ft 305 kts 301°
2026-04-21 13:46 63.95812 -23.02543 12173 ft 317 kts 301°
2026-04-21 13:46 63.96996 -23.06824 13033 ft 320 kts 301°
2026-04-21 13:46 63.98190 -23.11144 13918 ft 326 kts 301°
2026-04-21 13:46 63.99405 -23.15547 14783 ft 331 kts 301°
2026-04-21 13:47 64.00635 -23.20011 15633 ft 334 kts 301°
2026-04-21 13:47 64.01875 -23.24522 16487 ft 337 kts 301°
2026-04-21 13:47 64.02703 -23.27539 17042 ft 340 kts 301°
2026-04-21 13:47 64.04375 -23.33640 18126 ft 345 kts 301°
2026-04-21 13:48 64.05651 -23.38312 18922 ft 349 kts 301°
2026-04-21 13:48 64.06941 -23.43040 19612 ft 353 kts 301°
2026-04-21 13:48 64.08241 -23.47818 20291 ft 356 kts 301°
2026-04-21 13:48 64.09555 -23.52658 20969 ft 359 kts 301°
2026-04-21 13:49 64.10447 -23.55953 21407 ft 362 kts 302°
2026-04-21 13:49 64.11776 -23.60862 22060 ft 365 kts 302°
2026-04-21 13:49 64.13114 -23.65819 22791 ft 366 kts 302°
2026-04-21 13:49 64.14460 -23.70817 23347 ft 372 kts 302°
2026-04-21 13:50 64.15820 -23.75879 23953 ft 375 kts 302°
2026-04-21 13:50 64.17196 -23.81010 24524 ft 379 kts 302°
2026-04-21 13:50 64.18577 -23.86176 25033 ft 382 kts 302°
2026-04-21 13:50 64.19967 -23.91385 25541 ft 384 kts 302°
2026-04-21 13:51 64.21368 -23.96645 26053 ft 387 kts 302°
2026-04-21 13:51 64.22773 -24.01936 26550 ft 389 kts 302°
2026-04-21 13:51 64.24186 -24.07270 27054 ft 392 kts 302°
2026-04-21 13:51 64.25608 -24.12648 27538 ft 394 kts 302°
2026-04-21 13:52 64.27034 -24.18055 28012 ft 397 kts 302°
2026-04-21 13:52 64.28468 -24.23508 28485 ft 399 kts 302°
2026-04-21 13:52 64.29910 -24.29006 28945 ft 402 kts 302°
2026-04-21 13:52 64.31337 -24.34458 29397 ft 404 kts 302°
2026-04-21 13:53 64.32791 -24.40023 29848 ft 407 kts 302°
2026-04-21 13:53 64.34251 -24.45628 30294 ft 409 kts 302°
2026-04-21 13:53 64.35714 -24.51260 30735 ft 411 kts 302°
2026-04-21 13:53 64.37191 -24.56952 31105 ft 414 kts 302°
2026-04-21 13:54 64.38672 -24.62673 31444 ft 416 kts 301°
2026-04-21 13:54 64.40135 -24.68467 31800 ft 419 kts 297°
2026-04-21 13:54 64.41140 -24.74798 32150 ft 421 kts 288°
2026-04-21 13:54 64.42045 -24.81274 32452 ft 424 kts 289°
2026-04-21 13:55 64.42968 -24.87777 32779 ft 427 kts 289°
2026-04-21 13:55 64.43887 -24.94317 33120 ft 429 kts 289°
2026-04-21 13:55 64.44807 -25.00913 33435 ft 432 kts 289°
2026-04-21 13:55 64.45729 -25.07546 33755 ft 434 kts 288°
2026-04-21 13:56 64.46653 -25.14221 34079 ft 436 kts 288°
2026-04-21 13:56 64.47582 -25.20954 34392 ft 439 kts 288°
2026-04-21 13:56 64.48507 -25.27689 34738 ft 440 kts 288°
2026-04-21 13:56 64.49432 -25.34452 35112 ft 440 kts 288°
2026-04-21 13:57 64.50353 -25.41212 35453 ft 440 kts 288°
2026-04-21 13:57 64.51274 -25.48005 35783 ft 440 kts 288°
2026-04-21 13:57 64.52190 -25.54777 36104 ft 440 kts 288°
2026-04-21 13:57 64.53103 -25.61564 36412 ft 441 kts 288°
2026-04-21 13:58 64.54015 -25.68366 36712 ft 441 kts 288°
2026-04-21 13:58 64.54925 -25.75186 37000 ft 442 kts 288°
2026-04-21 13:58 64.55834 -25.82023 37284 ft 442 kts 288°
2026-04-21 13:58 64.56740 -25.88863 37561 ft 443 kts 288°
2026-04-21 13:59 64.57643 -25.95717 37826 ft 443 kts 288°
2026-04-21 13:59 64.58545 -26.02585 38094 ft 444 kts 288°
2026-04-21 13:59 64.59446 -26.09478 38352 ft 444 kts 288°
2026-04-21 13:59 64.60341 -26.16354 38608 ft 445 kts 288°
2026-04-21 14:00 64.61238 -26.23274 38851 ft 445 kts 288°
2026-04-21 14:00 64.62130 -26.30187 39088 ft 446 kts 288°
2026-04-21 14:00 64.63018 -26.37100 39323 ft 446 kts 288°
2026-04-21 14:00 64.63907 -26.44046 39517 ft 447 kts 287°
2026-04-21 14:01 64.64790 -26.50982 39688 ft 447 kts 288°
2026-04-21 14:01 64.65674 -26.57946 39870 ft 447 kts 287°
2026-04-21 14:01 64.66542 -26.64813 40044 ft 447 kts 287°
2026-04-21 14:01 64.67416 -26.71761 40207 ft 447 kts 287°
2026-04-21 14:02 64.68304 -26.78833 40366 ft 447 kts 287°
2026-04-21 14:02 64.69164 -26.85710 40514 ft 448 kts 287°
2026-04-21 14:02 64.69986 -26.92710 40660 ft 448 kts 283°
2026-04-21 14:03 64.71313 -27.06960 40730 ft 448 kts 283°
2026-04-21 14:03 64.72674 -27.21175 40735 ft 447 kts 283°
2026-04-21 14:04 64.74027 -27.35393 40736 ft 447 kts 283°
2026-04-21 14:04 64.75364 -27.49600 40737 ft 447 kts 283°
2026-04-21 14:05 64.76688 -27.63821 40736 ft 446 kts 283°
2026-04-21 14:05 64.77999 -27.78059 40732 ft 446 kts 283°
2026-04-21 14:06 64.79294 -27.92279 40732 ft 446 kts 282°
2026-04-21 14:06 64.80574 -28.06525 40726 ft 446 kts 282°
2026-04-21 14:07 64.81841 -28.20771 40725 ft 446 kts 282°
2026-04-21 14:07 64.83095 -28.35030 40728 ft 446 kts 282°
2026-04-21 14:08 64.84335 -28.49315 40722 ft 446 kts 282°
2026-04-21 14:08 64.85559 -28.63583 40721 ft 445 kts 281°
2026-04-21 14:09 64.86769 -28.77864 40725 ft 445 kts 281°
2026-04-21 14:09 64.87966 -28.92156 40714 ft 445 kts 281°
2026-04-21 14:10 64.89149 -29.06464 40710 ft 445 kts 281°
2026-04-21 14:10 64.90308 -29.20654 40713 ft 445 kts 281°
2026-04-21 14:11 64.91462 -29.34967 40710 ft 445 kts 281°
2026-04-21 14:11 64.92603 -29.49300 40707 ft 444 kts 280°
2026-04-21 14:12 64.93728 -29.63610 40707 ft 444 kts 280°
2026-04-21 14:12 64.94840 -29.77943 40703 ft 444 kts 280°
2026-04-21 14:13 64.95937 -29.92278 40707 ft 444 kts 279°
2026-04-21 14:13 64.97019 -30.06610 40701 ft 444 kts 279°
2026-04-21 14:14 64.98088 -30.20955 40701 ft 443 kts 279°
2026-04-21 14:14 64.99144 -30.35317 40704 ft 443 kts 279°
2026-04-21 14:15 65.00183 -30.49658 40707 ft 443 kts 279°
2026-04-21 14:15 65.01209 -30.64014 40706 ft 443 kts 279°
2026-04-21 14:16 65.02221 -30.78393 40695 ft 443 kts 278°
2026-04-21 14:16 65.03218 -30.92754 40699 ft 443 kts 278°
2026-04-21 14:17 65.04203 -31.07140 40695 ft 443 kts 278°
2026-04-21 14:17 65.05172 -31.21520 40690 ft 443 kts 278°
2026-04-21 14:18 65.06128 -31.35922 40697 ft 442 kts 278°
2026-04-21 14:18 65.07064 -31.50238 40697 ft 442 kts 278°
2026-04-21 14:19 65.07997 -31.64727 40688 ft 442 kts 277°
2026-04-21 14:19 65.08905 -31.79054 40691 ft 442 kts 277°
2026-04-21 14:20 65.09803 -31.93465 40685 ft 442 kts 277°
2026-04-21 14:20 65.10690 -32.07902 40678 ft 442 kts 277°
2026-04-21 14:21 65.11561 -32.22334 40685 ft 442 kts 277°
2026-04-21 14:21 65.12419 -32.36778 40676 ft 442 kts 277°
2026-04-21 14:22 65.13262 -32.51230 40675 ft 442 kts 276°
2026-04-21 14:22 65.14092 -32.65693 40673 ft 442 kts 276°
2026-04-21 14:23 65.14907 -32.80147 40674 ft 442 kts 276°
2026-04-21 14:23 65.15709 -32.94624 40673 ft 442 kts 276°
2026-04-21 14:24 65.16496 -33.09105 40668 ft 442 kts 276°
2026-04-21 14:24 65.17271 -33.23619 40668 ft 442 kts 276°
2026-04-21 14:25 65.18031 -33.38136 40664 ft 442 kts 276°
2026-04-21 14:25 65.18777 -33.52649 40667 ft 442 kts 275°
2026-04-21 14:26 65.19505 -33.67095 40664 ft 442 kts 275°
2026-04-21 14:26 65.20224 -33.81648 40667 ft 443 kts 275°
2026-04-21 14:27 65.20930 -33.96226 40659 ft 443 kts 275°
2026-04-21 14:27 65.21621 -34.10801 40661 ft 443 kts 275°
2026-04-21 14:28 65.22300 -34.25424 40657 ft 444 kts 275°
2026-04-21 14:28 65.22964 -34.40040 40657 ft 444 kts 275°
2026-04-21 14:29 65.23619 -34.54687 40657 ft 444 kts 275°
2026-04-21 14:29 65.24263 -34.69347 40653 ft 444 kts 275°
2026-04-21 14:30 65.24893 -34.84019 40653 ft 444 kts 274°
2026-04-21 14:30 65.25510 -34.98689 40655 ft 444 kts 274°
2026-04-21 14:31 65.26115 -35.13368 40653 ft 444 kts 274°
2026-04-21 14:31 65.26668 -35.28056 40647 ft 444 kts 269°
2026-04-21 14:32 65.26755 -35.42786 40649 ft 444 kts 270°
2026-04-21 14:32 65.26911 -35.57535 40648 ft 444 kts 270°
2026-04-21 14:33 65.27068 -35.72259 40649 ft 444 kts 270°
2026-04-21 14:33 65.27212 -35.86997 40650 ft 444 kts 270°
2026-04-21 14:34 65.27342 -36.01731 40644 ft 444 kts 270°
2026-04-21 14:34 65.27457 -36.16491 40644 ft 444 kts 270°
2026-04-21 14:35 65.27558 -36.31228 40642 ft 444 kts 270°
2026-04-21 14:35 65.27631 -36.43474 40641 ft 444 kts 270°
2026-04-21 14:36 65.27716 -36.60609 40638 ft 444 kts 270°
2026-04-21 14:36 65.27774 -36.75348 40638 ft 444 kts 269°
2026-04-21 14:37 65.27811 -36.87721 40638 ft 444 kts 269°
2026-04-21 14:37 65.27843 -37.02468 40639 ft 444 kts 269°
2026-04-21 14:38 65.27859 -37.17231 40637 ft 444 kts 269°
2026-04-21 14:38 65.27862 -37.31998 40639 ft 444 kts 269°
2026-04-21 14:39 65.27850 -37.46759 40639 ft 445 kts 269°
2026-04-21 14:39 65.27824 -37.61539 40638 ft 445 kts 269°
2026-04-21 14:40 65.27783 -37.76308 40638 ft 444 kts 269°
2026-04-21 14:40 65.27727 -37.91073 40640 ft 444 kts 269°
2026-04-21 14:41 65.27657 -38.05837 40639 ft 444 kts 269°
2026-04-21 14:41 65.27573 -38.20597 40642 ft 445 kts 269°
2026-04-21 14:42 65.27475 -38.35267 40642 ft 445 kts 269°
2026-04-21 14:42 65.27362 -38.50046 40638 ft 445 kts 269°
2026-04-21 14:43 65.27234 -38.64814 40638 ft 445 kts 268°
2026-04-21 14:43 65.27092 -38.79595 40635 ft 445 kts 268°
2026-04-21 14:44 65.26935 -38.94394 40636 ft 445 kts 268°
2026-04-21 14:44 65.26764 -39.09173 40639 ft 446 kts 268°
2026-04-21 14:45 65.26578 -39.23977 40640 ft 446 kts 268°
2026-04-21 14:45 65.26377 -39.38770 40638 ft 446 kts 268°
2026-04-21 14:46 65.26162 -39.53563 40641 ft 446 kts 268°
2026-04-21 14:46 65.25933 -39.68349 40645 ft 446 kts 267°
2026-04-21 14:47 65.25689 -39.83111 40639 ft 445 kts 267°
2026-04-21 14:47 65.25431 -39.97854 40641 ft 444 kts 267°
2026-04-21 14:48 65.25160 -40.12577 40640 ft 444 kts 267°
2026-04-21 14:48 65.24873 -40.27297 40640 ft 444 kts 266°
2026-04-21 14:49 65.24573 -40.42000 40642 ft 444 kts 266°
2026-04-21 14:49 65.24258 -40.56701 40641 ft 443 kts 266°
2026-04-21 14:50 65.23986 -40.68897 40639 ft 443 kts 266°
2026-04-21 14:50 65.23587 -40.86037 40636 ft 442 kts 266°
2026-04-21 14:51 65.23233 -41.00579 40637 ft 442 kts 266°
2026-04-21 14:51 65.22863 -41.15197 40634 ft 441 kts 265°
2026-04-21 14:52 65.22479 -41.29794 40634 ft 441 kts 265°
2026-04-21 14:52 65.22082 -41.44363 40636 ft 441 kts 265°
2026-04-21 14:53 65.21670 -41.58945 40634 ft 440 kts 265°
2026-04-21 14:53 65.21245 -41.73479 40631 ft 440 kts 265°
2026-04-21 14:54 65.20807 -41.88008 40628 ft 439 kts 265°
2026-04-21 14:54 65.20355 -42.02503 40623 ft 439 kts 264°
2026-04-21 14:55 65.19890 -42.16975 40615 ft 438 kts 264°
2026-04-21 14:55 65.19411 -42.31425 40612 ft 438 kts 264°
2026-04-21 14:56 65.18919 -42.45867 40603 ft 437 kts 264°
2026-04-21 14:56 65.18414 -42.60270 40593 ft 437 kts 264°
2026-04-21 14:57 65.17895 -42.74670 40585 ft 436 kts 263°
2026-04-21 14:57 65.17363 -42.89038 40570 ft 435 kts 263°
2026-04-21 14:58 65.16824 -43.03377 40557 ft 434 kts 263°
2026-04-21 14:58 65.16274 -43.17661 40547 ft 434 kts 263°
2026-04-21 14:59 65.15712 -43.31931 40532 ft 433 kts 262°
2026-04-21 14:59 65.15139 -43.46162 40518 ft 432 kts 262°
2026-04-21 15:00 65.14554 -43.60381 40509 ft 432 kts 262°
2026-04-21 15:00 65.14002 -43.74601 40501 ft 432 kts 263°
2026-04-21 15:01 65.13592 -43.88826 40491 ft 432 kts 263°
2026-04-21 15:01 65.13180 -44.02970 40478 ft 431 kts 263°
2026-04-21 15:02 65.12753 -44.17162 40463 ft 431 kts 262°
2026-04-21 15:02 65.12312 -44.31361 40450 ft 430 kts 262°
2026-04-21 15:03 65.11859 -44.45510 40432 ft 430 kts 262°
2026-04-21 15:03 65.11392 -44.59660 40420 ft 429 kts 262°
2026-04-21 15:04 65.10914 -44.73758 40407 ft 429 kts 261°
2026-04-21 15:04 65.10421 -44.87873 40391 ft 429 kts 261°
2026-04-21 15:05 65.09917 -45.01968 40386 ft 428 kts 261°
2026-04-21 15:05 65.09135 -45.23085 40368 ft 428 kts 261°
2026-04-21 15:06 65.08597 -45.37164 40360 ft 428 kts 261°
2026-04-21 15:06 65.08046 -45.51228 40360 ft 428 kts 260°
2026-04-21 15:07 65.07483 -45.65281 40355 ft 429 kts 260°
2026-04-21 15:07 65.06907 -45.79274 40343 ft 429 kts 259°
2026-04-21 15:08 65.06316 -45.93334 40329 ft 429 kts 259°
2026-04-21 15:08 65.05708 -46.07504 40327 ft 429 kts 259°
2026-04-21 15:09 65.05093 -46.21483 40321 ft 430 kts 259°
2026-04-21 15:09 65.04461 -46.35550 40311 ft 430 kts 259°
2026-04-21 15:10 65.03816 -46.49626 40306 ft 430 kts 259°
2026-04-21 15:10 65.03156 -46.63716 40300 ft 430 kts 258°
2026-04-21 15:11 65.02483 -46.77787 40290 ft 431 kts 258°
2026-04-21 15:11 65.02143 -46.84811 40126 ft 427 kts 258°
2026-04-21 15:11 65.01799 -46.91816 39348 ft 432 kts 258°
2026-04-21 15:12 65.01448 -46.98905 38514 ft 435 kts 258°
2026-04-21 15:12 65.01094 -47.06000 37917 ft 432 kts 258°
2026-04-21 15:12 65.00742 -47.12993 37483 ft 425 kts 258°
2026-04-21 15:12 65.00391 -47.19881 37010 ft 420 kts 258°
2026-04-21 15:13 65.00159 -47.24395 36669 ft 417 kts 258°
2026-04-21 15:13 64.99690 -47.33457 35996 ft 413 kts 258°
2026-04-21 15:13 64.99343 -47.40087 35505 ft 410 kts 258°
2026-04-21 15:13 64.98986 -47.46845 35005 ft 407 kts 258°
2026-04-21 15:14 64.98634 -47.53465 34529 ft 405 kts 258°
2026-04-21 15:14 64.98286 -47.59943 34024 ft 402 kts 258°
2026-04-21 15:14 64.97931 -47.66494 33495 ft 400 kts 258°
2026-04-21 15:14 64.97578 -47.72968 33028 ft 396 kts 258°
2026-04-21 15:15 64.97225 -47.79379 32579 ft 392 kts 258°
2026-04-21 15:15 64.96872 -47.85743 32134 ft 389 kts 258°
2026-04-21 15:15 64.96519 -47.92043 31695 ft 385 kts 258°
2026-04-21 15:15 64.96167 -47.98278 31270 ft 382 kts 258°
2026-04-21 15:16 64.95815 -48.04484 30841 ft 380 kts 258°
2026-04-21 15:16 64.95463 -48.10628 30415 ft 377 kts 258°
2026-04-21 15:16 64.95110 -48.16743 29945 ft 375 kts 258°
2026-04-21 15:16 64.94758 -48.22811 29501 ft 371 kts 258°
2026-04-21 15:17 64.94407 -48.28810 29096 ft 367 kts 258°
2026-04-21 15:17 64.94057 -48.34740 28705 ft 364 kts 257°
2026-04-21 15:17 64.93708 -48.40625 28311 ft 360 kts 257°
2026-04-21 15:17 64.93361 -48.46447 27924 ft 357 kts 257°
2026-04-21 15:18 64.93013 -48.52227 27543 ft 354 kts 257°
2026-04-21 15:18 64.92667 -48.57936 27172 ft 351 kts 257°
2026-04-21 15:18 64.92321 -48.63616 26798 ft 348 kts 256°
2026-04-21 15:18 64.91976 -48.69242 26430 ft 346 kts 256°
2026-04-21 15:19 64.91631 -48.74834 26065 ft 344 kts 256°
2026-04-21 15:19 64.91287 -48.80387 25704 ft 341 kts 256°
2026-04-21 15:19 64.90941 -48.85910 25344 ft 339 kts 256°
2026-04-21 15:19 64.90597 -48.91389 24985 ft 337 kts 255°
2026-04-21 15:20 64.90252 -48.96845 24632 ft 336 kts 255°
2026-04-21 15:20 64.89907 -49.02259 24279 ft 334 kts 255°
2026-04-21 15:20 64.89561 -49.07664 23924 ft 333 kts 255°
2026-04-21 15:20 64.89216 -49.13029 23529 ft 331 kts 255°
2026-04-21 15:21 64.88870 -49.18367 23141 ft 329 kts 255°
2026-04-21 15:21 64.88526 -49.23658 22787 ft 326 kts 255°
2026-04-21 15:21 64.88182 -49.28907 22447 ft 323 kts 254°
2026-04-21 15:21 64.87840 -49.34097 22106 ft 320 kts 254°
2026-04-21 15:22 64.87500 -49.39236 21774 ft 316 kts 254°
2026-04-21 15:22 64.87162 -49.44336 21439 ft 313 kts 254°
2026-04-21 15:22 64.86831 -49.49311 21120 ft 311 kts 254°
2026-04-21 15:22 64.86492 -49.54373 20790 ft 308 kts 254°
2026-04-21 15:23 64.86271 -49.57653 20579 ft 307 kts 254°
2026-04-21 15:23 64.85831 -49.64177 20149 ft 303 kts 253°
2026-04-21 15:23 64.85499 -49.69063 19840 ft 301 kts 253°
2026-04-21 15:23 64.85168 -49.73915 19524 ft 300 kts 253°
2026-04-21 15:24 64.84945 -49.77175 19310 ft 298 kts 253°
2026-04-21 15:24 64.84510 -49.83504 18902 ft 295 kts 253°
2026-04-21 15:24 64.84288 -49.86710 18702 ft 294 kts 253°
2026-04-21 15:24 64.83960 -49.91439 18366 ft 293 kts 253°
2026-04-21 15:25 64.83632 -49.96143 18031 ft 291 kts 253°
2026-04-21 15:25 64.83203 -50.00641 17712 ft 280 kts 241°
2026-04-21 15:25 64.82392 -50.04719 17407 ft 273 kts 238°
2026-04-21 15:25 64.81577 -50.08783 17119 ft 270 kts 237°
2026-04-21 15:26 64.80783 -50.12737 16837 ft 266 kts 237°
2026-04-21 15:26 64.80007 -50.16596 16561 ft 263 kts 237°
2026-04-21 15:26 64.79214 -50.20526 16279 ft 266 kts 237°
2026-04-21 15:26 64.78413 -50.24496 15991 ft 271 kts 237°
2026-04-21 15:27 64.77603 -50.28500 15709 ft 272 kts 237°
2026-04-21 15:27 64.76801 -50.32462 15430 ft 273 kts 237°
2026-04-21 15:27 64.75974 -50.36532 15143 ft 274 kts 237°
2026-04-21 15:27 64.75156 -50.40554 14849 ft 274 kts 237°
2026-04-21 15:28 64.74334 -50.44590 14562 ft 273 kts 236°
2026-04-21 15:28 64.73524 -50.48556 14270 ft 274 kts 236°
2026-04-21 15:28 64.72694 -50.52614 13962 ft 272 kts 236°
2026-04-21 15:28 64.71881 -50.56582 13644 ft 269 kts 236°
2026-04-21 15:29 64.71075 -50.60504 13353 ft 266 kts 236°
2026-04-21 15:29 64.70276 -50.64387 13065 ft 263 kts 236°
2026-04-21 15:29 64.69498 -50.68167 12780 ft 260 kts 235°
2026-04-21 15:29 64.68709 -50.71985 12507 ft 256 kts 235°
2026-04-21 15:30 64.67940 -50.75702 12239 ft 252 kts 234°
2026-04-21 15:30 64.67178 -50.79377 11968 ft 249 kts 234°
2026-04-21 15:30 64.66429 -50.82988 11707 ft 246 kts 234°
2026-04-21 15:30 64.65687 -50.86556 11443 ft 243 kts 234°
2026-04-21 15:31 64.64953 -50.90078 11194 ft 239 kts 234°
2026-04-21 15:31 64.64234 -50.93521 10947 ft 241 kts 233°
2026-04-21 15:31 64.63482 -50.97119 10673 ft 246 kts 234°
2026-04-21 15:31 64.62738 -51.00673 10417 ft 248 kts 234°
2026-04-21 15:32 64.61978 -51.04300 10158 ft 250 kts 234°
2026-04-21 15:32 64.61207 -51.07965 9887 ft 253 kts 233°
2026-04-21 15:32 64.60417 -51.11714 9503 ft 255 kts 234°
2026-04-21 15:32 64.59650 -51.15360 9235 ft 253 kts 234°
2026-04-21 15:33 64.58880 -51.19006 8974 ft 249 kts 234°
2026-04-21 15:33 64.58119 -51.22604 8714 ft 246 kts 234°
2026-04-21 15:33 64.57368 -51.26152 8449 ft 243 kts 234°
2026-04-21 15:33 64.56625 -51.29651 8182 ft 240 kts 234°
2026-04-21 15:34 64.55891 -51.33111 7925 ft 237 kts 233°
2026-04-21 15:34 64.55167 -51.36514 7718 ft 233 kts 233°
2026-04-21 15:34 64.54433 -51.39764 7613 ft 218 kts 224°
2026-04-21 15:34 64.53317 -51.41855 7353 ft 201 kts 198°
2026-04-21 15:35 64.52029 -51.43049 7109 ft 198 kts 196°
2026-04-21 15:35 64.50749 -51.44179 6872 ft 195 kts 195°
2026-04-21 15:35 64.49482 -51.45241 6644 ft 191 kts 195°
2026-04-21 15:35 64.48239 -51.46244 6408 ft 187 kts 194°
2026-04-21 15:36 64.47020 -51.47203 6189 ft 183 kts 194°
2026-04-21 15:36 64.45830 -51.48124 5968 ft 178 kts 194°
2026-04-21 15:36 64.44668 -51.49012 5769 ft 174 kts 193°
2026-04-21 15:36 64.43519 -51.49882 5561 ft 174 kts 193°
2026-04-21 15:37 64.42362 -51.50753 5366 ft 176 kts 193°
2026-04-21 15:37 64.41194 -51.51628 5155 ft 177 kts 193°
2026-04-21 15:37 64.40031 -51.52497 4877 ft 178 kts 193°
2026-04-21 15:37 64.38837 -51.53385 4601 ft 177 kts 193°
2026-04-21 15:38 64.37680 -51.54247 4364 ft 174 kts 194°
2026-04-21 15:38 64.36524 -51.55103 4122 ft 175 kts 194°
2026-04-21 15:38 64.35373 -51.55956 3875 ft 175 kts 194°
2026-04-21 15:38 64.34205 -51.56820 3628 ft 176 kts 194°
2026-04-21 15:39 64.33058 -51.57668 3376 ft 176 kts 194°
2026-04-21 15:39 64.31891 -51.58531 3212 ft 177 kts 194°
2026-04-21 15:39 64.30713 -51.59398 3210 ft 178 kts 194°
2026-04-21 15:39 64.29533 -51.60268 3245 ft 178 kts 194°
2026-04-21 15:40 64.28357 -51.61134 3241 ft 177 kts 194°
2026-04-21 15:40 64.27185 -51.61996 3243 ft 177 kts 193°
2026-04-21 15:40 64.26011 -51.62860 3239 ft 177 kts 194°
2026-04-21 15:40 64.24838 -51.63721 3248 ft 176 kts 193°
2026-04-21 15:41 64.23677 -51.64575 3242 ft 175 kts 194°
2026-04-21 15:41 64.22523 -51.65421 3226 ft 175 kts 194°
2026-04-21 15:41 64.21364 -51.66268 3236 ft 175 kts 194°
2026-04-21 15:41 64.20207 -51.67114 3225 ft 177 kts 193°
2026-04-21 15:42 64.18992 -51.68046 3251 ft 190 kts 200°
2026-04-21 15:42 64.18006 -51.70151 3209 ft 206 kts 233°
2026-04-21 15:42 64.17719 -51.73498 3257 ft 228 kts 266°
2026-04-21 15:42 64.18200 -51.77096 3254 ft 243 kts 284°
2026-04-21 15:43 64.18899 -51.80638 3250 ft 244 kts 284°
2026-04-21 15:43 64.19605 -51.84181 3236 ft 246 kts 284°
2026-04-21 15:43 64.20319 -51.87767 3238 ft 247 kts 284°
2026-04-21 15:43 64.21034 -51.91361 3228 ft 247 kts 284°
2026-04-21 15:44 64.21747 -51.94939 3226 ft 246 kts 283°
2026-04-21 15:44 64.22482 -51.98448 3219 ft 252 kts 292°
2026-04-21 15:44 64.23708 -52.01493 3249 ft 263 kts 306°
2026-04-21 15:44 64.24634 -52.04853 3216 ft 238 kts 273°
2026-04-21 15:45 64.24734 -52.08412 3238 ft 215 kts 247°
2026-04-21 15:45 64.24377 -52.11673 3243 ft 207 kts 238°
2026-04-21 15:45 64.23892 -52.14741 3232 ft 203 kts 234°
2026-04-21 15:45 64.23313 -52.17659 3237 ft 198 kts 230°
2026-04-21 15:46 64.22615 -52.20348 3236 ft 193 kts 223°
2026-04-21 15:46 64.22039 -52.23228 3207 ft 213 kts 248°
2026-04-21 15:46 64.22247 -52.26810 3217 ft 244 kts 281°
2026-04-21 15:46 64.23376 -52.29943 3195 ft 271 kts 322°
2026-04-21 15:47 64.25200 -52.31084 3198 ft 278 kts
2026-04-21 15:47 64.26948 -52.29626 3202 ft 261 kts 50°
2026-04-21 15:47 64.27855 -52.26416 3208 ft 225 kts 94°
2026-04-21 15:47 64.27762 -52.23092 3239 ft 202 kts 118°
2026-04-21 15:48 64.27298 -52.20113 3236 ft 194 kts 127°
2026-04-21 15:48 64.26653 -52.17445 3233 ft 187 kts 135°
2026-04-21 15:48 64.25937 -52.14932 3223 ft 193 kts 127°
2026-04-21 15:48 64.25422 -52.12043 3230 ft 197 kts 123°
2026-04-21 15:49 64.24807 -52.09347 3220 ft 182 kts 142°
2026-04-21 15:49 64.23803 -52.07799 3230 ft 173 kts 165°
2026-04-21 15:49 64.22623 -52.07527 3240 ft 173 kts 185°
2026-04-21 15:49 64.21486 -52.08508 3240 ft 180 kts 205°
2026-04-21 15:50 64.20582 -52.10611 3236 ft 195 kts 226°
2026-04-21 15:50 64.20115 -52.13673 3225 ft 217 kts 252°
2026-04-21 15:50 64.20373 -52.17274 3237 ft 241 kts 276°
2026-04-21 15:50 64.20930 -52.20940 3236 ft 243 kts 276°
2026-04-21 15:51 64.21487 -52.24602 3236 ft 243 kts 276°
2026-04-21 15:51 64.22089 -52.28245 3217 ft 251 kts 286°
2026-04-21 15:51 64.23362 -52.31094 3175 ft 273 kts 330°
2026-04-21 15:51 64.25261 -52.31731 3185 ft 276 kts 14°
2026-04-21 15:52 64.26884 -52.29799 3193 ft 255 kts 59°
2026-04-21 15:52 64.27558 -52.26432 3198 ft 216 kts 103°
2026-04-21 15:52 64.27184 -52.23476 3236 ft 190 kts 131°
2026-04-21 15:52 64.26615 -52.20666 3226 ft 196 kts 124°
2026-04-21 15:53 64.26118 -52.17727 3230 ft 198 kts 123°
2026-04-21 15:53 64.25654 -52.14738 3235 ft 199 kts 122°
2026-04-21 15:53 64.25213 -52.11726 3235 ft 199 kts 121°
2026-04-21 15:53 64.24586 -52.09080 3218 ft 180 kts 144°
2026-04-21 15:54 64.23557 -52.07647 3238 ft 172 kts 167°
2026-04-21 15:54 64.22374 -52.07522 3231 ft 173 kts 188°
2026-04-21 15:54 64.21261 -52.08690 3219 ft 182 kts 209°
2026-04-21 15:54 64.20422 -52.10984 3227 ft 198 kts 230°
2026-04-21 15:55 64.20076 -52.14207 3214 ft 223 kts 258°
2026-04-21 15:55 64.20454 -52.17843 3242 ft 242 kts 275°
2026-04-21 15:55 64.21009 -52.21503 3224 ft 243 kts 276°
2026-04-21 15:55 64.21569 -52.25162 3228 ft 243 kts 276°
2026-04-21 15:56 64.22249 -52.28775 3199 ft 257 kts 296°
2026-04-21 15:56 64.23725 -52.31266 3179 ft 276 kts 340°
2026-04-21 15:56 64.25620 -52.31316 3189 ft 273 kts 24°
2026-04-21 15:56 64.27087 -52.28953 3198 ft 248 kts 68°
2026-04-21 15:57 64.27521 -52.25522 3197 ft 207 kts 112°
2026-04-21 15:57 64.27008 -52.22684 3241 ft 191 kts 130°
2026-04-21 15:57 64.26467 -52.19840 3225 ft 196 kts 124°
2026-04-21 15:57 64.25982 -52.16888 3229 ft 197 kts 122°
2026-04-21 15:58 64.25528 -52.13909 3223 ft 197 kts 121°
2026-04-21 15:58 64.25089 -52.10916 3222 ft 195 kts 124°
2026-04-21 15:58 64.24344 -52.08576 3219 ft 176 kts 150°
2026-04-21 15:58 64.23245 -52.07504 3228 ft 171 kts 173°
2026-04-21 15:59 64.22063 -52.07752 3230 ft 175 kts 194°
2026-04-21 15:59 64.21008 -52.09247 3236 ft 186 kts 214°
2026-04-21 15:59 64.20275 -52.11822 3228 ft 204 kts 237°
2026-04-21 15:59 64.20123 -52.15179 3225 ft 231 kts 267°
2026-04-21 16:00 64.20608 -52.18823 3235 ft 243 kts 276°
2026-04-21 16:00 64.21167 -52.22491 3234 ft 244 kts 276°
2026-04-21 16:00 64.21730 -52.26155 3233 ft 243 kts 276°
2026-04-21 16:00 64.22577 -52.29681 3182 ft 264 kts 307°
2026-04-21 16:01 64.24215 -52.31607 3177 ft 278 kts 351°
2026-04-21 16:01 64.26082 -52.31000 3188 ft 269 kts 34°
2026-04-21 16:01 64.27332 -52.28205 3189 ft 239 kts 79°
2026-04-21 16:01 64.27479 -52.24828 3199 ft 197 kts 122°
2026-04-21 16:02 64.26881 -52.22108 3232 ft 193 kts 127°
2026-04-21 16:02 64.26363 -52.19228 3230 ft 196 kts 124°
2026-04-21 16:02 64.25887 -52.16289 3226 ft 197 kts 122°
2026-04-21 16:02 64.25441 -52.13316 3226 ft 197 kts 121°
2026-04-21 16:03 64.24985 -52.10360 3215 ft 190 kts 129°
2026-04-21 16:03 64.24143 -52.08274 3222 ft 174 kts 155°
2026-04-21 16:03 64.23011 -52.07511 3239 ft 171 kts 178°
2026-04-21 16:03 64.21843 -52.08040 3258 ft 176 kts 198°
2026-04-21 16:04 64.20841 -52.09771 3242 ft 186 kts 219°
2026-04-21 16:04 64.20294 -52.12516 3219 ft 200 kts 249°
2026-04-21 16:04 64.20581 -52.15814 3214 ft 225 kts 281°
2026-04-21 16:04 64.21234 -52.19122 3266 ft 229 kts 280°
2026-04-21 16:05 64.21871 -52.22465 3258 ft 228 kts 279°
2026-04-21 16:05 64.22522 -52.25800 3227 ft 235 kts 290°
2026-04-21 16:05 64.23825 -52.28268 3136 ft 255 kts 338°
2026-04-21 16:05 64.25571 -52.28346 3131 ft 252 kts 26°
2026-04-21 16:06 64.26860 -52.26056 3156 ft 222 kts 75°
2026-04-21 16:06 64.27082 -52.23005 3200 ft 176 kts 123°
2026-04-21 16:06 64.26558 -52.20574 3256 ft 172 kts 128°
2026-04-21 16:06 64.26114 -52.17969 3244 ft 176 kts 123°
2026-04-21 16:07 64.25709 -52.15312 3240 ft 176 kts 122°
2026-04-21 16:07 64.25320 -52.12632 3236 ft 177 kts 122°
2026-04-21 16:07 64.24880 -52.10038 3213 ft 166 kts 137°
2026-04-21 16:07 64.24038 -52.08482 3222 ft 153 kts 162°
2026-04-21 16:08 64.21990 -52.09098 3225 ft 162 kts 206°
2026-04-21 16:08 64.21216 -52.11105 3219 ft 179 kts 229°
2026-04-21 16:08 64.20964 -52.14075 3199 ft 209 kts 264°
2026-04-21 16:09 64.21434 -52.17396 3253 ft 224 kts 275°
2026-04-21 16:09 64.21946 -52.20771 3266 ft 224 kts 274°
2026-04-21 16:09 64.22444 -52.24146 3246 ft 223 kts 275°
2026-04-21 16:09 64.23299 -52.27272 3162 ft 247 kts 314°
2026-04-21 16:10 64.24932 -52.28626 3129 ft 256 kts
2026-04-21 16:10 64.26545 -52.27373 3141 ft 239 kts 52°
2026-04-21 16:10 64.27314 -52.24443 3197 ft 196 kts 100°
2026-04-21 16:10 64.27010 -52.21792 3251 ft 164 kts 135°
2026-04-21 16:11 64.26621 -52.20266 3250 ft 171 kts 128°
2026-04-21 16:11 64.26159 -52.17711 3230 ft 174 kts 124°
2026-04-21 16:11 64.25734 -52.15090 3231 ft 175 kts 123°
2026-04-21 16:11 64.25332 -52.12434 3229 ft 176 kts 122°
2026-04-21 16:12 64.24863 -52.09898 3216 ft 164 kts 139°
2026-04-21 16:12 64.23998 -52.08439 3225 ft 152 kts 164°
2026-04-21 16:12 64.22954 -52.08238 3240 ft 154 kts 186°
2026-04-21 16:12 64.21956 -52.09256 3246 ft 164 kts 207°
2026-04-21 16:13 64.21206 -52.11353 3237 ft 181 kts 231°
2026-04-21 16:13 64.21010 -52.14386 3202 ft 213 kts 267°
2026-04-21 16:13 64.21502 -52.17732 3261 ft 224 kts 275°
2026-04-21 16:13 64.22016 -52.21116 3261 ft 224 kts 274°
2026-04-21 16:14 64.22533 -52.24503 3237 ft 227 kts 278°
2026-04-21 16:14 64.23535 -52.27469 3153 ft 251 kts 322°
2026-04-21 16:14 64.25229 -52.28420 3122 ft 255 kts 11°
2026-04-21 16:14 64.26752 -52.26795 3163 ft 232 kts 60°
2026-04-21 16:15 64.27328 -52.23765 3213 ft 194 kts 108°
2026-04-21 16:15 64.26911 -52.21026 3246 ft 183 kts 129°
2026-04-21 16:15 64.26568 -52.18038 3221 ft 206 kts 107°
2026-04-21 16:15 64.26544 -52.14690 3234 ft 212 kts 103°
2026-04-21 16:16 64.26705 -52.11253 3212 ft 228 kts 83°
2026-04-21 16:16 64.27654 -52.08115 3191 ft 255 kts 50°
2026-04-21 16:16 64.29242 -52.06072 3119 ft 267 kts 27°
2026-04-21 16:16 64.30999 -52.04579 3021 ft 270 kts 26°
2026-04-21 16:17 64.32763 -52.03133 2983 ft 268 kts 25°
2026-04-21 16:17 64.34511 -52.01681 2998 ft 267 kts 25°
2026-04-21 16:17 64.36258 -52.00210 3001 ft 266 kts 25°
2026-04-21 16:17 64.37989 -51.98741 3005 ft 265 kts 26°
2026-04-21 16:18 64.39698 -51.97289 2992 ft 264 kts 25°
2026-04-21 16:18 64.41437 -51.95803 2968 ft 261 kts 25°
2026-04-21 16:18 64.43139 -51.94346 2989 ft 261 kts 25°
2026-04-21 16:18 64.44836 -51.92872 2992 ft 261 kts 25°
2026-04-21 16:19 64.46532 -51.91381 2993 ft 259 kts 25°
2026-04-21 16:19 64.48215 -51.89902 3011 ft 259 kts 25°
2026-04-21 16:19 64.49890 -51.88398 3006 ft 258 kts 25°
2026-04-21 16:19 64.51561 -51.86856 3013 ft 260 kts 29°
2026-04-21 16:20 64.52991 -51.84360 3007 ft 256 kts 59°
2026-04-21 16:20 64.53701 -51.80739 3019 ft 242 kts 89°
2026-04-21 16:20 64.53644 -51.76930 2966 ft 234 kts 106°
2026-04-21 16:20 64.53355 -51.73261 2908 ft 234 kts 107°
2026-04-21 16:21 64.53029 -51.69489 2837 ft 235 kts 107°
2026-04-21 16:21 64.52705 -51.65834 2788 ft 234 kts 108°
2026-04-21 16:21 64.52369 -51.62121 2722 ft 235 kts 107°
2026-04-21 16:21 64.52019 -51.58409 2669 ft 235 kts 107°
2026-04-21 16:22 64.51629 -51.54721 2623 ft 234 kts 114°
2026-04-21 16:22 64.50733 -51.51716 2527 ft 226 kts 144°
2026-04-21 16:22 64.49326 -51.50182 2410 ft 225 kts 165°
2026-04-21 16:22 64.47794 -51.49338 2309 ft 227 kts 167°
2026-04-21 16:23 64.46244 -51.48670 2198 ft 227 kts 176°
2026-04-21 16:23 64.44676 -51.49061 2067 ft 228 kts 192°
2026-04-21 16:23 64.43142 -51.50068 1948 ft 230 kts 195°
2026-04-21 16:23 64.41654 -51.51150 1998 ft 213 kts 195°
2026-04-21 16:24 64.40267 -51.52178 2258 ft 208 kts 195°
2026-04-21 16:24 64.39032 -51.53105 2743 ft 167 kts 194°
2026-04-21 16:24 64.38025 -51.53863 2978 ft 144 kts 193°
2026-04-21 16:24 64.37079 -51.54566 3030 ft 142 kts 194°
2026-04-21 16:25 64.36170 -51.55244 3043 ft 129 kts 193°
2026-04-21 16:25 64.35346 -51.55856 3054 ft 121 kts 193°
2026-04-21 16:25 64.34562 -51.56443 3031 ft 117 kts 193°
2026-04-21 16:25 64.33788 -51.57020 3006 ft 116 kts 193°
2026-04-21 16:26 64.33018 -51.57593 2999 ft 116 kts 193°
2026-04-21 16:26 64.32247 -51.58169 2994 ft 117 kts 193°
2026-04-21 16:26 64.31469 -51.58747 2929 ft 118 kts 193°
2026-04-21 16:26 64.30694 -51.59313 2774 ft 117 kts 194°
2026-04-21 16:27 64.29919 -51.59883 2632 ft 117 kts 194°
2026-04-21 16:27 64.29137 -51.60463 2466 ft 119 kts 193°
2026-04-21 16:27 64.28341 -51.61067 2307 ft 121 kts 193°
2026-04-21 16:27 64.27539 -51.61668 2138 ft 121 kts 193°
2026-04-21 16:28 64.26735 -51.62267 1952 ft 122 kts 194°
2026-04-21 16:28 64.25924 -51.62870 1777 ft 123 kts 193°
2026-04-21 16:28 64.25104 -51.63479 1585 ft 124 kts 193°
2026-04-21 16:28 64.24283 -51.64087 1360 ft 124 kts 194°
2026-04-21 16:29 64.23457 -51.64696 1119 ft 125 kts 195°
2026-04-21 16:29 64.22632 -51.65312 915 ft 124 kts 194°
2026-04-21 16:29 64.21815 -51.65940 707 ft 123 kts 195°
2026-04-21 16:29 64.21005 -51.66547 531 ft 121 kts 194°
2026-04-21 16:30 64.20204 -51.67122 332 ft 120 kts 195°
2026-04-21 16:30 64.19500 -51.67632 286 ft 74 kts 198°
2026-04-21 16:30 64.19203 -51.67853 283 ft 31 kts 198°
2026-04-21 16:30 64.19100 -51.67833 284 ft 14 kts 120°
2026-04-21 16:31 64.19075 -51.67663 285 ft 8 kts 108°
2026-04-21 16:31 64.19028 -51.67603 284 ft 9 kts 190°
2026-04-21 16:31 64.18959 -51.67654 284 ft 12 kts 197°
2026-04-21 16:31 64.18874 -51.67716 284 ft 14 kts 198°
2026-04-21 16:32 64.18759 -51.67801 284 ft 21 kts 198°
2026-04-21 16:32 64.18612 -51.67909 284 ft 17 kts 198°
2026-04-21 16:32 64.18543 -51.67945 284 ft 8 kts 160°
2026-04-21 16:32 64.18525 -51.67873 284 ft 4 kts 107°
2026-04-21 16:33 64.18521 -51.67840 284 ft 0 kts 107°